Du Bois, PA

3:48 AM EST on December 11, 2019 (GMT -0500)
Du Bois-Jefferson County

Weather History for KDUJ - October, 2019

Change the Weather History Date:

Saturday, October 5, 2019

  Actual Average Record
Temperature  
Mean Temperature 46 °F 52 °F  
Max Temperature 57 °F 62 °F 83 °F (2007)
Min Temperature 35 °F 43 °F 28 °F (1965)
Degree Days  
Heating Degree Days 19 13  
Month to date heating degree days 37 60  
Since 1 July heating degree days 140 306  
Cooling Degree Days 0 0  
Month to date cooling degree days 23 0  
Year to date cooling degree days 430 360  
Moisture  
Dew Point 37 °F    
Average Humidity 74    
Maximum Humidity 92    
Minimum Humidity 57    
Precipitation  
Precipitation 0.00 in 0.11 in 6.94 in (1997)
Month to date precipitation 0.44 0.53  
Year to date precipitation 36.84 33.77  
Sea Level Pressure  
Sea Level Pressure 30.30 in    
Wind  
Wind Speed 9 mph ()    
Max Wind Speed 18 mph    
Max Gust Speed 25 mph    
Visibility 10.0 miles    
Events      
T = Trace of Precipitation, MM = Missing Value Source: Averaged Metar Reports

Daily Weather History Graph

Daily Weather History Graph

Search for Another Location

Airport or City:

Astronomy

Oct. 05, 2019 Rise Set
Actual Time 7:16 AM EDT 6:51 PM EDT
Civil Twilight 6:48 AM EDT 7:18 PM EDT
Nautical Twilight 6:16 AM EDT 7:50 PM EDT
Astronomical Twilight 5:44 AM EDT 8:22 PM EDT
Moon 2:43 PM EDT (10/5) No Moon Set
Length of Visible Light 12h 30m
Length of Day
11h 34m
Waxing Crescent, 50% of the Moon is Illuminated
Oct 5
Waxing Crescent
Oct 5
First Quarter
Oct 13
Full
Oct 21
Last Quarter
Oct 27
New

Hourly Weather History & Observations

Time (EDT) Temp. Windchill Dew Point Humidity Pressure Visibility Wind Dir Wind Speed Gust Speed Precip Events Conditions
12:53 AM 37.0 °F 32.4 °F 34.0 °F 89% 30.38 in 10.0 mi ENE 5.8 mph - N/A   Clear
1:53 AM 36.0 °F 29.6 °F 33.1 °F 89% 30.39 in 10.0 mi ENE 8.1 mph - N/A   Clear
2:53 AM 35.1 °F 30.1 °F 33.1 °F 92% 30.38 in 10.0 mi East 5.8 mph - N/A   Clear
3:53 AM 35.1 °F 28.6 °F 32.0 °F 89% 30.36 in 10.0 mi East 8.1 mph - N/A   Clear
4:53 AM 35.1 °F 29.3 °F 32.0 °F 89% 30.36 in 10.0 mi East 6.9 mph - N/A   Clear
5:53 AM 36.0 °F 29.0 °F 33.1 °F 89% 30.37 in 10.0 mi East 9.2 mph - N/A   Clear
6:53 AM 36.0 °F 28.5 °F 33.1 °F 89% 30.38 in 10.0 mi East 10.4 mph - N/A   Scattered Clouds
7:53 AM 36.0 °F 28.0 °F 33.1 °F 89% 30.38 in 10.0 mi East 11.5 mph - N/A   Clear
8:53 AM 39.9 °F 32.9 °F 35.1 °F 83% 30.38 in 10.0 mi ESE 11.5 mph - N/A   Clear
9:53 AM 43.0 °F 35.1 °F 35.1 °F 74% 30.36 in 10.0 mi ESE 17.3 mph 23.0 mph N/A   Clear
10:53 AM 45.0 °F 38.9 °F 36.0 °F 71% 30.38 in 10.0 mi ESE 12.7 mph 24.2 mph N/A   Scattered Clouds
11:04 AM 45.0 °F 38.9 °F 36.0 °F 71% 30.34 in 10.0 mi ESE 12.7 mph 20.7 mph N/A   Mostly Cloudy
11:20 AM 46.9 °F - 37.0 °F 68% 30.33 in 10.0 mi ESE 10.4 mph - N/A   Scattered Clouds
11:53 AM 48.9 °F - 37.0 °F 64% 30.35 in 10.0 mi ESE 12.7 mph 20.7 mph N/A   Clear
12:53 PM 53.1 °F - 39.0 °F 59% 30.32 in 10.0 mi ESE 13.8 mph 21.9 mph N/A   Clear
1:53 PM 54.0 °F - 39.0 °F 57% 30.30 in 10.0 mi SE 13.8 mph 21.9 mph N/A   Clear
2:53 PM 55.0 °F - 39.9 °F 57% 30.26 in 10.0 mi SE 9.2 mph 20.7 mph N/A   Clear
3:53 PM 55.9 °F - 41.0 °F 57% 30.24 in 10.0 mi SE 10.4 mph 21.9 mph N/A   Clear
4:53 PM 55.9 °F - 42.1 °F 60% 30.23 in 10.0 mi SE 11.5 mph 20.7 mph N/A   Clear
5:53 PM 54.0 °F - 41.0 °F 62% 30.23 in 10.0 mi SE 10.4 mph 20.7 mph N/A   Clear
6:53 PM 51.1 °F - 41.0 °F 68% 30.22 in 10.0 mi SE 9.2 mph - N/A   Scattered Clouds
7:53 PM 50.0 °F - 41.0 °F 71% 30.20 in 10.0 mi SE 11.5 mph 20.7 mph N/A   Scattered Clouds
8:53 PM 50.0 °F - 41.0 °F 71% 30.18 in 10.0 mi SE 10.4 mph 19.6 mph N/A   Clear
9:53 PM 51.1 °F - 42.1 °F 71% 30.18 in 10.0 mi SE 10.4 mph 18.4 mph N/A   Clear
10:53 PM 50.0 °F - 43.0 °F 77% 30.17 in 10.0 mi SE 8.1 mph 17.3 mph N/A   Clear
11:53 PM 51.1 °F - 43.0 °F 74% 30.17 in 10.0 mi SE 9.2 mph - N/A   Clear